sat.trackr.live / text

‹ back to catalog

STARLINK-11315 [DTC]

NORAD 61692 · 2024-195F

PAYLOAD ACTIVE UNKNOWN

§ Identity

Operator
Country
US
Launch date
2024-10-30
Launch site
AFWTR
Launch vehicle
Mass (kg)
RCS (m²)

Purposes: comms

External: N2YO · Heavens-Above · Gunter

§ Orbital elements

Epoch: 2026-09-21T22:00:03.000096Z

Period
91.73 min
Inclination
53.1571°
Eccentricity
0.0001183
Mean motion
15.69788404 rev/d
Perigee alt
358.7 km
Apogee alt
360.3 km
Semi-major
6,737.6 km
B*
-1.4951e-3
RAAN
139.0569°
Arg perigee
99.1885°
Mean anomaly
188.2335°
Rev number
598

§ Raw data

STARLINK-11315 [DTC]1 61692U 24195F   26264.91670139 -.00178462  00000+0 -14951-2 0  99922 61692  53.1571 139.0569 0001183  99.1885 188.2335 15.69788404  5988

JSON: /api/v1/satellites/61692 · /tle

For live sub-satellite position, see the globe view (requires WebGL).

§ Visibility from observer

Set your observer location to see the next 7 days of passes ≥ 10°. The values pass through the URL so the page stays shareable.

No JS? Fill the form by hand. The geolocation button needs JavaScript.